Beckley, WV

11:51 PM EDT on May 25, 2017 (GMT -0400)
Raleigh County Memorial

Weather History for KBKW - June, 2012

Change the Weather History Date:

Saturday, June 16, 2012

  Actual Average Record
Temperature  
Mean Temperature 68 °F 68 °F  
Max Temperature 78 °F 77 °F 93 °F (1952)
Min Temperature 57 °F 58 °F 36 °F (1917)
Degree Days  
Heating Degree Days 0 1  
Month to date heating degree days 43 31  
Since 1 June heating degree days 43 31  
Since 1 July heating degree days 4206 5332  
Cooling Degree Days 3 4  
Month to date cooling degree days 25 45  
Year to date cooling degree days 139 86  
Since 1 June cooling degree days 25 45  
Growing Degree Days 18 (Base 50)    
Moisture  
Dew Point 53 °F    
Average Humidity 62    
Maximum Humidity 80    
Minimum Humidity 43    
Precipitation  
Precipitation 0.00 in 0.13 in 3.21 in (1954)
Month to date precipitation 1.37 2.12  
Year to date precipitation 20.20 19.28  
Snow  
Snow 0.00 in - - ()
Month to date snowfall 0.0  
Since 1 September snowfall 36.0  
Snow Depth 0.00 in    
Sea Level Pressure  
Sea Level Pressure 30.20 in    
Wind  
Wind Speed 8 mph (SE)    
Max Wind Speed 15 mph    
Max Gust Speed 22 mph    
Visibility 10 miles    
Events      
T = Trace of Precipitation, MM = Missing Value Source: NWS Daily Summary

Daily Weather History Graph

Daily Weather History Graph

Search for Another Location

Airport or City:

Trip Planner

Search our weather history database for the weather conditions in past years. The results will help you decide how hot, cold, wet, or windy it might be!

Date:

Astronomy

Jun. 16, 2012 Rise Set
Actual Time 6:02 AM EDT 8:48 PM EDT
Civil Twilight 5:30 AM EDT 9:19 PM EDT
Nautical Twilight 4:51 AM EDT 9:59 PM EDT
Astronomical Twilight 4:07 AM EDT 10:43 PM EDT
Moon 3:49 AM EDT (6/16) 6:23 PM EDT (6/16)
Length of Visible Light 15h 49m
Length of Day
14h 46m
Waning Crescent, 8% of the Moon is Illuminated
Jun 16
Waning Crescent
Jun 19
New
Jun 26
First Quarter
Jul 3
Full
Jul 10
Last Quarter

Hourly Weather History & Observations

Time (EDT) Temp. Dew Point Humidity Pressure Visibility Wind Dir Wind Speed Gust Speed Precip Events Conditions
12:51 AM 62.1 °F 54.0 °F 75% 30.20 in 10.0 mi SE 8.1 mph - N/A   Clear
1:51 AM 61.0 °F 54.0 °F 78% 30.19 in 10.0 mi SE 8.1 mph - N/A   Clear
2:51 AM 60.1 °F 53.1 °F 78% 30.19 in 10.0 mi SE 8.1 mph - N/A   Clear
3:51 AM 59.0 °F 53.1 °F 81% 30.19 in 10.0 mi SSE 9.2 mph - N/A   Clear
4:51 AM 59.0 °F 53.1 °F 81% 30.20 in 10.0 mi SE 9.2 mph - N/A   Clear
5:51 AM 57.9 °F 52.0 °F 81% 30.23 in 10.0 mi SE 8.1 mph - N/A   Clear
6:51 AM 57.9 °F 51.1 °F 78% 30.24 in 10.0 mi SE 4.6 mph - N/A   Clear
7:51 AM 60.8 °F 51.8 °F 72% 30.32 in 10.0 mi SE 4.6 mph - N/A   Clear
8:51 AM 64.0 °F 52.0 °F 65% 30.27 in 10.0 mi SSE 6.9 mph - N/A   Clear
9:51 AM 66.9 °F 52.0 °F 59% 30.28 in 10.0 mi SSE 5.8 mph - N/A   Clear
10:51 AM 69.8 °F 53.6 °F 56% 30.34 in 10.0 mi SE 6.9 mph - N/A   Clear
11:51 AM 71.1 °F 54.0 °F 55% 30.25 in 10.0 mi Variable 3.5 mph - N/A   Clear
12:51 PM 73.0 °F 55.0 °F 53% 30.23 in 10.0 mi Variable 5.8 mph - N/A   Clear
1:51 PM 73.9 °F 54.0 °F 50% 30.21 in 10.0 mi ESE 4.6 mph - N/A   Clear
2:51 PM 75.9 °F 55.0 °F 48% 30.19 in 10.0 mi South 8.1 mph - N/A   Clear
3:51 PM 77.0 °F 54.0 °F 45% 30.18 in 10.0 mi Variable 4.6 mph - N/A   Partly Cloudy
4:51 PM 77.0 °F 55.0 °F 47% 30.16 in 10.0 mi Variable 6.9 mph - N/A   Clear
5:51 PM 75.9 °F 54.0 °F 46% 30.15 in 10.0 mi ESE 9.2 mph - N/A   Clear
6:51 PM 73.0 °F 54.0 °F 51% 30.14 in 10.0 mi SE 6.9 mph - N/A   Clear
7:51 PM 71.1 °F 55.0 °F 57% 30.14 in 10.0 mi SE 8.1 mph - N/A   Clear
8:51 PM 68.0 °F 54.0 °F 61% 30.14 in 10.0 mi SE 6.9 mph - N/A   Clear
9:51 PM 66.0 °F 53.1 °F 63% 30.13 in 10.0 mi SE 10.4 mph - N/A   Clear
10:51 PM 64.9 °F 52.0 °F 63% 30.14 in 10.0 mi SE 8.1 mph - N/A   Clear
11:51 PM 64.0 °F 52.0 °F 65% 30.13 in 10.0 mi SE 15.0 mph 20.7 mph N/A   Clear